sat.trackr.live / text

‹ back to catalog

STARLINK-33924

NORAD 64149 · 2025-112D

PAYLOAD ACTIVE UNKNOWN

§ Identity

Operator
Country
US
Launch date
2025-05-27
Launch site
AFWTR
Launch vehicle
Mass (kg)
RCS (m²)

Purposes: comms

External: N2YO · Heavens-Above · Gunter

§ Orbital elements

Epoch: 2026-09-20T20:56:27.470688Z

Period
93.91 min
Inclination
97.2855°
Eccentricity
0.0001102
Mean motion
15.33448825 rev/d
Perigee alt
464.8 km
Apogee alt
466.3 km
Semi-major
6,843.7 km
B*
5.5947e-4
RAAN
310.9057°
Arg perigee
90.1823°
Mean anomaly
269.9546°
Rev number
7,280

§ Raw data

STARLINK-339241 64149U 25112D   26263.87254017  .00018032  00000+0  55947-3 0  99942 64149  97.2855 310.9057 0001102  90.1823 269.9546 15.33448825 72805

JSON: /api/v1/satellites/64149 · /tle

For live sub-satellite position, see the globe view (requires WebGL).

§ Visibility from observer

Set your observer location to see the next 7 days of passes ≥ 10°. The values pass through the URL so the page stays shareable.

No JS? Fill the form by hand. The geolocation button needs JavaScript.